Torna al catalogo

COSMOS 887

AttivoMilitarePO
NORAD 9637·PAYLOAD·🇷🇺 Russia

Lanciato Dec 28, 1976 da Plesetsk Cosmodrome

Loading…

Prossimi Passaggi (prossime 24 ore)

TLE

AggiornatoSource: Space-Track

Epoca: Sep 14, 2026, 06:45 UTC

1 09637U 76128A   26257.28170049  .00000043  00000-0  28352-4 0  9993
2 09637  82.9360  94.6051 0045002 358.3012 175.8779 13.76512894495944

Traccia COSMOS 887 in tempo reale con AllMySat

Download on the App Store